When you browse on this site, cookies collect data to enhance your experience and personalize the content and advertising you see.
Visit our Privacy Policy to learn more. By continuing to use the site, you agree to this use of cookies and data.
  • In Hungary
  • List of Countries
  • For 7 days
  • Water Temperature
  • Weather Map
  • News
  • Weather Widgets
  • user-avatar
    Login

    Hourly Weather Dubova

    Today, 24 August, Saturday

    Time Temperature Precipitation Wind Pressure Humidity
    00:00 +15°C° 0 mm 2 mps 742 mmHg 84%
    01:00 +15°C° 0 mm 2 mps 742 mmHg 86%
    02:00 +14°C° 0 mm 2 mps 742 mmHg 85%
    03:00 +14°C° 0 mm 2 mps 742 mmHg 86%
    04:00 +14°C° 0 mm 2 mps 742 mmHg 88%
    05:00 +13°C° 0 mm 2 mps 742 mmHg 89%
    06:00 +15°C° 0 mm 2 mps 742 mmHg 85%
    07:00 +16°C° 0 mm 3 mps 742 mmHg 81%
    08:00 +18°C° 0 mm 3 mps 742 mmHg 77%
    09:00 +19°C° 0 mm 3 mps 742 mmHg 70%
    10:00 +21°C° 0 mm 3 mps 742 mmHg 64%
    11:00 +24°C° 0 mm 3 mps 742 mmHg 57%
    12:00 +25°C° 0 mm 3 mps 742 mmHg 55%
    13:00 +25°C° 0 mm 3 mps 742 mmHg 53%
    14:00 +26°C° 0 mm 2 mps 741 mmHg 51%
    15:00 +26°C° 0 mm 3 mps 741 mmHg 53%
    16:00 +26°C° 0 mm 3 mps 741 mmHg 55%
    17:00 +25°C° 0 mm 3 mps 741 mmHg 57%
    18:00 +22°C° 0 mm 3 mps 741 mmHg 64%
    19:00 +20°C° 0 mm 3 mps 741 mmHg 71%
    20:00 +19°C° 0 mm 3 mps 741 mmHg 78%
    21:00 +18°C° 0 mm 3 mps 741 mmHg 79%
    22:00 +17°C° 0 mm 3 mps 741 mmHg 80%
    23:00 +17°C° 0 mm 3 mps 741 mmHg 82%

    Tomorrow, 25 August, Sunday

    Time Temperature Precipitation Wind Pressure Humidity
    00:00 +16°C° 0 mm 3 mps 741 mmHg 80%
    01:00 +16°C° 0 mm 3 mps 741 mmHg 78%
    02:00 +14°C° 0 mm 3 mps 741 mmHg 77%
    03:00 +14°C° 0 mm 3 mps 741 mmHg 75%
    04:00 +14°C° 0 mm 3 mps 741 mmHg 73%
    05:00 +14°C° 0 mm 3 mps 741 mmHg 71%
    06:00 +16°C° 0 mm 3 mps 741 mmHg 69%
    07:00 +17°C° 0 mm 3 mps 741 mmHg 68%
    08:00 +18°C° 0 mm 3 mps 741 mmHg 66%
    09:00 +20°C° 0 mm 3 mps 741 mmHg 63%
    10:00 +22°C° 0 mm 4 mps 742 mmHg 59%
    11:00 +25°C° 0 mm 4 mps 742 mmHg 55%
    12:00 +25°C° 0 mm 4 mps 742 mmHg 53%
    13:00 +26°C° 0 mm 4 mps 741 mmHg 51%
    14:00 +27°C° 0 mm 3 mps 741 mmHg 49%
    15:00 +26°C° 0 mm 3 mps 741 mmHg 51%
    16:00 +26°C° 0 mm 3 mps 741 mmHg 54%
    17:00 +25°C° 0 mm 3 mps 741 mmHg 56%
    18:00 +22°C° 0 mm 3 mps 741 mmHg 60%
    19:00 +20°C° 0 mm 3 mps 741 mmHg 63%
    20:00 +19°C° 0 mm 3 mps 741 mmHg 67%
    21:00 +18°C° 0 mm 3 mps 741 mmHg 67%
    22:00 +17°C° 0 mm 3 mps 741 mmHg 67%
    23:00 +16°C° 0 mm 3 mps 741 mmHg 68%

    Day after tomorrow, 26 August, Monday

    Time Temperature Precipitation Wind Pressure Humidity
    00:00 +16°C° 0 mm 3 mps 741 mmHg 71%
    01:00 +16°C° 0 mm 3 mps 741 mmHg 73%
    02:00 +15°C° 0 mm 2 mps 741 mmHg 76%
    03:00 +15°C° 0 mm 2 mps 741 mmHg 80%
    04:00 +15°C° 0 mm 2 mps 741 mmHg 83%
    05:00 +14°C° 0 mm 2 mps 741 mmHg 86%
    06:00 +16°C° 0 mm 3 mps 741 mmHg 81%
    07:00 +18°C° 0 mm 3 mps 741 mmHg 76%
    08:00 +20°C° 0 mm 3 mps 741 mmHg 70%
    09:00 +21°C° 0 mm 3 mps 741 mmHg 64%
    10:00 +23°C° 0 mm 4 mps 741 mmHg 58%
    11:00 +26°C° 0 mm 4 mps 741 mmHg 52%
    12:00 +27°C° 0 mm 4 mps 741 mmHg 50%
    13:00 +27°C° 0 mm 4 mps 741 mmHg 48%
    14:00 +28°C° 0 mm 3 mps 741 mmHg 46%
    15:00 +28°C° 0 mm 3 mps 740 mmHg 48%
    16:00 +27°C° 0 mm 3 mps 740 mmHg 51%
    17:00 +27°C° 0 mm 3 mps 739 mmHg 54%
    18:00 +25°C° 0 mm 3 mps 739 mmHg 59%
    19:00 +22°C° 0 mm 3 mps 739 mmHg 65%
    20:00 +20°C° 0 mm 3 mps 739 mmHg 71%
    21:00 +19°C° 0 mm 3 mps 739 mmHg 73%
    22:00 +19°C° 0 mm 3 mps 739 mmHg 74%
    23:00 +18°C° 0 mm 3 mps 739 mmHg 75%

    27 August, Tuesday

    Time Temperature Precipitation Wind Pressure Humidity
    00:00 +17°C° 0 mm 3 mps 739 mmHg 75%
    01:00 +17°C° 0 mm 3 mps 739 mmHg 75%
    02:00 +16°C° 0 mm 2 mps 739 mmHg 75%
    03:00 +16°C° 0 mm 2 mps 739 mmHg 76%
    04:00 +16°C° 0 mm 2 mps 739 mmHg 76%
    05:00 +16°C° 0 mm 2 mps 739 mmHg 76%
    06:00 +17°C° 0 mm 2 mps 739 mmHg 72%
    07:00 +19°C° 0 mm 2 mps 739 mmHg 68%
    08:00 +21°C° 0 mm 2 mps 739 mmHg 64%
    09:00 +23°C° 0 mm 2 mps 739 mmHg 59%
    10:00 +25°C° 0 mm 2 mps 739 mmHg 53%
    11:00 +27°C° 0 mm 2 mps 740 mmHg 48%
    12:00 +28°C° 0 mm 2 mps 739 mmHg 46%
    13:00 +28°C° 0 mm 2 mps 739 mmHg 44%
    14:00 +29°C° 0 mm 1 mps 739 mmHg 41%
    15:00 +29°C° 0 mm 2 mps 739 mmHg 43%
    16:00 +29°C° 0 mm 2 mps 738 mmHg 45%
    17:00 +28°C° 0 mm 2 mps 738 mmHg 46%
    18:00 +26°C° 0 mm 2 mps 738 mmHg 53%
    19:00 +24°C° 0 mm 3 mps 738 mmHg 60%
    20:00 +21°C° 0 mm 3 mps 738 mmHg 67%
    21:00 +20°C° 0 mm 3 mps 738 mmHg 68%
    22:00 +19°C° 0 mm 2 mps 739 mmHg 68%
    23:00 +18°C° 0 mm 2 mps 739 mmHg 68%

    28 August, Wednesday

    Time Temperature Precipitation Wind Pressure Humidity
    00:00 +18°C° 0 mm 2 mps 739 mmHg 69%
    01:00 +18°C° 0 mm 1 mps 739 mmHg 70%
    02:00 +18°C° 0 mm 1 mps 738 mmHg 71%
    03:00 +18°C° 0 mm 1 mps 738 mmHg 72%
    04:00 +16°C° 0 mm 1 mps 738 mmHg 73%
    05:00 +16°C° 0 mm 1 mps 738 mmHg 74%
    06:00 +18°C° 0 mm 1 mps 739 mmHg 69%
    07:00 +20°C° 0 mm 1 mps 739 mmHg 65%
    08:00 +21°C° 0 mm 2 mps 739 mmHg 61%
    09:00 +23°C° 0 mm 2 mps 739 mmHg 57%
    10:00 +25°C° 0 mm 2 mps 739 mmHg 52%
    11:00 +27°C° 0 mm 2 mps 739 mmHg 47%
    12:00 +27°C° 0 mm 2 mps 739 mmHg 45%
    13:00 +28°C° 0 mm 2 mps 738 mmHg 43%
    14:00 +28°C° 0 mm 2 mps 738 mmHg 41%
    15:00 +28°C° 0 mm 2 mps 738 mmHg 43%
    16:00 +28°C° 0 mm 2 mps 738 mmHg 45%
    17:00 +27°C° 0 mm 2 mps 737 mmHg 48%
    18:00 +25°C° 0 mm 3 mps 737 mmHg 55%
    19:00 +22°C° 0 mm 3 mps 737 mmHg 62%
    20:00 +20°C° 0 mm 3 mps 737 mmHg 69%
    21:00 +19°C° 0 mm 3 mps 737 mmHg 72%
    22:00 +18°C° 0 mm 3 mps 737 mmHg 75%
    23:00 +18°C° 0 mm 3 mps 737 mmHg 77%

    29 August, Thursday

    Time Temperature Precipitation Wind Pressure Humidity
    00:00 +17°C° 0 mm 3 mps 737 mmHg 75%
    01:00 +17°C° 0 mm 3 mps 737 mmHg 73%
    02:00 +16°C° 0 mm 3 mps 737 mmHg 70%
    03:00 +16°C° 0 mm 3 mps 737 mmHg 68%
    04:00 +14°C° 0 mm 3 mps 737 mmHg 66%
    05:00 +14°C° 0 mm 3 mps 737 mmHg 64%
    06:00 +16°C° 0 mm 3 mps 737 mmHg 62%
    07:00 +18°C° 0 mm 3 mps 737 mmHg 60%
    08:00 +19°C° 0 mm 4 mps 737 mmHg 58%
    09:00 +21°C° 0 mm 4 mps 737 mmHg 54%
    10:00 +23°C° 0 mm 4 mps 737 mmHg 51%
    11:00 +25°C° 0 mm 4 mps 737 mmHg 47%
    12:00 +26°C° 0 mm 4 mps 737 mmHg 46%
    13:00 +27°C° 0 mm 3 mps 737 mmHg 44%
    14:00 +28°C° 0 mm 3 mps 737 mmHg 42%
    15:00 +27°C° 0 mm 3 mps 736 mmHg 45%
    16:00 +27°C° 0 mm 3 mps 736 mmHg 47%
    17:00 +26°C° 0 mm 3 mps 736 mmHg 50%
    18:00 +23°C° 0 mm 4 mps 736 mmHg 53%
    19:00 +21°C° 0 mm 4 mps 736 mmHg 56%
    20:00 +19°C° 0 mm 5 mps 736 mmHg 59%
    21:00 +17°C° 0 mm 5 mps 736 mmHg 58%
    22:00 +18°C° 0 mm 4 mps 737 mmHg 58%
    23:00 +17°C° 0 mm 4 mps 737 mmHg 57%
    Show more